Flag Weather past 2 weeks in Volgograd, Russia

Now
34 °F

Clear.


Feels Like: 29 °F
Forecast: 27 / 48 °F
Wind: 6 mph from Northeast

Location: Volgograd Airport

Current Time: Nov 1, 2014 at 12:02:42 AM

Latest Report: Oct 31, 2014 at 11:30 PM


Visibility: 10 mi

Pressure: 30.04 "Hg

Humidity: 65%

Dew point: 23 °F

Location of VolgogradLocation

Historic Weather in Volgograd — Graph

°F

Volgograd temperature yesterday

Maximum temperature yesterday: 52 °F (at 1:30 PM)
Minimum temperature yesterday: 28 °F (at 4:30 AM)
Average temperature yesterday: 39 °F

Past Weeks' High & Low Weather Summary

 TemperatureHumidityPressure
High63 °F (Oct 17, 12:00 PM)100% (Oct 17, 1:30 PM)30.74 "Hg (Oct 17, 1:30 PM)
Low12 °F (Oct 26, 12:30 AM)28% (Oct 31, 1:30 PM)29.56 "Hg (Oct 17, 4:00 PM)
Average35 °F75%30.17 "Hg
* Reported Midnight between Oct 16 and Oct 17 — Oct 31 11:00 PM, Volgograd, Weather by CustomWeather, © 2014

Note: Actual official high and low records may vary slightly from our data, if they occured in-between our weather recording intervals... More about our weather records

Advertising

Volgograd weather history for previous 24 hours

 ConditionsComfort  
Time TempWeatherWind HumidityBarometerVisibility
11:00 PM
Oct 31
34 °FClear.3 mph65%30.04 "Hg10 mi
10:30 PM37 °FClear.6 mph56%30.04 "Hg10 mi
10:00 PM36 °FClear.6 mph60%30.07 "Hg10 mi
9:30 PM37 °FClear.8 mph60%30.07 "Hg10 mi
9:00 PM39 °FClear.8 mph61%30.07 "Hg10 mi
8:30 PM41 °FClear.8 mph57%30.07 "Hg10 mi
8:00 PM43 °FClear.8 mph53%30.09 "Hg10 mi
7:30 PM43 °FClear.8 mph57%30.09 "Hg10 mi
7:00 PM41 °FClear.8 mph57%30.09 "Hg10 mi
6:30 PM43 °FClear.6 mph53%30.09 "Hg10 mi
6:00 PM45 °FClear.8 mph49%30.09 "Hg10 mi
5:30 PM45 °FClear.8 mph46%30.09 "Hg10 mi
5:00 PM46 °FClear.6 mph37%30.09 "Hg10 mi
4:30 PM46 °FSunny.3 mph34%30.09 "Hg10 mi
4:00 PM48 °FSunny.6 mph32%30.09 "Hg10 mi
3:30 PM50 °FSunny.6 mph30%30.12 "Hg10 mi
3:00 PM50 °FSunny.8 mph30%30.12 "Hg10 mi
2:30 PM50 °FSunny.8 mph28%30.12 "Hg10 mi
2:00 PM52 °FSunny.8 mph28%30.12 "Hg10 mi
1:30 PM52 °FPassing clouds.8 mph28%30.12 "HgN/A
1:00 PM50 °FPassing clouds.6 mph35%30.15 "HgN/A
12:30 PM50 °FSunny.8 mph37%30.15 "Hg10 mi
12:00 PM48 °FPassing clouds.8 mph40%30.15 "HgN/A
11:30 AM46 °FPassing clouds.6 mph43%30.18 "HgN/A
11:00 AM46 °FSunny.8 mph40%30.18 "Hg10 mi
10:30 AM43 °FSunny.8 mph53%30.18 "Hg10 mi
10:00 AM41 °FSunny.8 mph61%30.18 "Hg10 mi
9:30 AM39 °FSunny.10 mph65%30.18 "Hg10 mi
9:00 AM37 °FSunny.6 mph75%30.21 "Hg10 mi
8:30 AM34 °FSunny.6 mph81%30.21 "Hg10 mi
8:00 AM32 °FSunny.3 mph87%30.21 "Hg10 mi
7:30 AM30 °FSunny.1 mph80%30.21 "Hg10 mi
7:00 AM30 °FSunny.6 mph86%30.21 "Hg10 mi
6:30 AM28 °FClear.6 mph93%30.21 "Hg10 mi
6:00 AM28 °FClear.6 mph86%30.21 "Hg10 mi
5:30 AM30 °FClear.6 mph86%30.21 "Hg10 mi
5:00 AM30 °FClear.8 mph86%30.21 "Hg10 mi
4:30 AM28 °FClear.6 mph93%30.21 "Hg10 mi
4:00 AM30 °FClear.8 mph86%30.21 "Hg10 mi
3:30 AM30 °FClear.8 mph86%30.21 "Hg10 mi
3:00 AM32 °FClear.6 mph87%30.21 "Hg10 mi
2:30 AM34 °FPassing clouds.6 mph81%30.21 "HgN/A
2:00 AM32 °FClear.8 mph87%30.24 "Hg10 mi
1:30 AM30 °FClear.8 mph86%30.24 "Hg10 mi
1:00 AM32 °FClear.8 mph87%30.24 "Hg10 mi
12:30 AM34 °FClear.8 mph87%30.24 "Hg10 mi
12:00 AM34 °FClear.8 mph87%30.24 "Hg10 mi
Weather by CustomWeather, © 2014

See weather overviewHow to use our weather pages